Location: Owatonna
(44.0840°N, 93.2260°W)
Time: 16:21:59
(UTC-05:00)

Tiangong 1 - Visible Passes

Search period start: 03 August 2015 00:00
Search period end: 13 August 2015 00:00
Orbit: 369 x 388 km, 42.8° (Epoch: 03 August)

Date Brightness Start Highest point End Pass type
(mag) Time Alt. Az. Time Alt. Az. Time Alt. Az.
06 Aug 3.6 05:21:18 10° S 05:22:38 12° SSE 05:24:01 10° ESE visible
08 Aug 3.0 04:54:29 14° S 04:55:56 18° SSE 04:58:12 10° ESE visible
09 Aug 1.8 05:27:47 10° SW 05:30:39 39° SSE 05:33:35 10° E visible
10 Aug 2.3 04:28:56 26° SSE 04:29:09 26° SSE 04:31:49 10° E visible
11 Aug 1.3 05:02:07 21° WSW 05:03:52 52° SSE 05:06:54 10° E visible
12 Aug 2.5 04:03:12 29° ESE 04:03:12 29° ESE 04:05:09 10° E visible
12 Aug 1.0 05:35:37 10° W 05:38:41 70° S 05:41:46 10° E visible
